Regional Weather Roundup
Issued by NWS

Home | Current Version | Previous Version | Text Only | Print | Product List | Glossary On
Versions: 1 2 3 4 5 6 7 8 9 10 11 12 13 14 15 16 17 18 19 20 21 22 23 24 25 26 27
000
ASUS42 KTBW 010117
RWRFL
FLORIDA REGIONAL WEATHER ROUNDUP
NATIONAL WEATHER SERVICE TAMPA BAY RUSKIN FL
900 PM EDT SUN APR 30 2017

NOTE: "FAIR" INDICATES FEW OR NO CLOUDS BELOW 12,000 FEET WITH NO
SIGNIFICANT WEATHER AND/OR OBSTRUCTIONS TO VISIBILITY.

FLZ001>010-012>015-112-114-115-010200-
PANHANDLE FLORIDA

CITY           SKY/WX    TMP DP  RH WIND       PRES   REMARKS
PENSACOLA      CLOUDY    78  73  84 SE13      29.97R
PENSACOLA NAS  CLOUDY    77  73  87 SE14      29.94F
MILTON NAS     LGT RAIN  75  73  93 SE10      29.97S
CRESTVIEW      CLOUDY    77  71  82 S8        30.00S
DUKE FIELD     MOCLDY    76  71  83 SE13G21   29.97S
VALPARAISO     CLOUDY    76  72  88 SE18      29.98S
MARY ESTHER    CLOUDY    75  72  88 E8G21     29.96
PANAMA CITY    CLOUDY    78  71  79 SE12      29.99S
TYNDALL AFB    MOCLDY    76  71  84 SE13      30.00R
APALACHICOLA   CLOUDY    77  74  90 S14       30.00F

STATION/POSITION SKY/WX   TEMP    WIND        PRES    WAVE   SWELL
                          AIR SEA DIR/SP/G            HT/PER HT/PER
                          (F)     (DEG/KT/KT) (MB)    (FT/S) (FT/S)
30.1N   87.6W              76 75  110/ 12/ 16 1013.5    6/ 8   5/ 8
29.2N   88.2W              77 76  130/ 19/ 25 1011.1F
28.8N   86.0W              76 75  130/ 16/ 19 1014.2    6/ 7   3/ 8
PANAMA CITY BEAC           76 78  130/ 20/ 23 1015.7R
TOWER C                    75     160/ 19/ 22 1016.3F
28.5N   84.5W              76 75  180/ 10/ 12 1016.6    6/ 7   5/ 7

$$
FLZ011-016>038-118-127-128-134-139-239-010200-
NORTH FLORIDA

CITY           SKY/WX    TMP DP  RH WIND       PRES   REMARKS
MARIANNA       MOCLDY    79  70  74 SE6       30.00S
TALLAHASSEE    CLOUDY    77  69  76 S3        30.03S
PERRY          CLOUDY    77  69  77 CALM      30.04S
CROSS CITY     CLOUDY    79  70  73 W6        30.04S
LAKE CITY      FAIR      79  70  73 E7        30.05R
GAINESVILLE    PTCLDY    81  68  64 SE15      30.05R
WILLISTON      CLEAR     77  72  83 SW5       30.05R
PALATKA        MOCLDY    77  72  83 SE12      30.09S
MAYPORT NAS    CLOUDY    72  71  97 SE20G31   30.09S
JACKSONVILLE   MOCLDY    76  70  82 SE20G25   30.07F
JAX NAS        CLOUDY    78  70  76 SE17G28   30.08F
FERNANDINA BEA FAIR      79  72  78 SE17G25   30.08F
ST AUGUSTINE   PTCLDY    76  71  85 SE15      30.12R

STATION/POSITION SKY/WX   TEMP    WIND        PRES    WAVE   SWELL
                          AIR SEA DIR/SP/G            HT/PER HT/PER
                          (F)     (DEG/KT/KT) (MB)    (FT/S) (FT/S)
SHELL POINT      NOT AVBL
KEATON BEACH               79     240/ 13/ 15 1016.6F
CEDAR KEY                  80     310/  4/  5 1017.4S
FERNANDINA                 77 80  140/  7/ 14 1019.7F
30.7N   81.3W                 76                N/A     5/ 6
MAYPORT                    76 79  150/ 10/ 20 1019.5S
31.4N   80.9W              76 75  150/ 16/ 19 1018.9    4/ 6
ST AUGUSTINE               76 78  140/ 22/ 25 1019.8R

$$
FLZ040-043>046-052-053-057-058-063-144-010200-
INTERIOR CENTRAL FLORIDA

CITY           SKY/WX    TMP DP  RH WIND       PRES   REMARKS
OCALA          PTCLDY    82  66  57 SE5       30.06R
THE VILLAGES     N/A     82  70  65 MISG      29.97S
LEESBURG       CLEAR     81  70  69 SE15      30.09R
SANFORD        CLEAR     78  68  71 SE14      30.11R
ORLANDO EXEC   CLEAR     78  68  71 SE14      30.10R
ORLANDO INTL   PTCLDY    76  69  79 SE16      30.10R
KISSIMMEE      CLEAR     79  69  71 SE12      30.10R
WINTER HAVEN   CLEAR     81  66  60 E12       30.09R
LAKELAND       PTCLDY    82  66  57 SE14      30.07R
BARTOW         FAIR      79  66  65 E8        30.08R
OKEECHOBEE     CLEAR     77  68  73 E5        30.10S

$$
FLZ041-047-054-059-064-141-147-010200-
EAST CENTRAL FLORIDA

CITY           SKY/WX    TMP DP  RH WIND       PRES   REMARKS
DAYTONA BEACH  PTCLDY    76  72  87 SE7       30.12R
DELAND         CLEAR     77  68  73 SE10      30.10S
NEW SMYRNA BEA PTCLDY    77  72  83 SE16G28   30.13R
JFK SPACE CTR  CLEAR     76  71  83 SE9       30.11R
TITUSVILLE     MOCLDY    79  75  89 SE13      30.12R
CAPE CANAVERAL CLEAR     76  70  80 SE18      30.10R
PATRICK AFB    CLEAR     77  73  87 SE20      30.10S
MELBOURNE      PTCLDY    79  72  79 SE14      30.11R
VERO BEACH     PTCLDY    77  71  82 SE13      30.11R
FT PIERCE      CLEAR     79  71  76 SE13      30.10R
STUART         PTCLDY    79  75  89 SE13      30.11S

STATION/POSITION SKY/WX   TEMP    WIND        PRES    WAVE   SWELL
                          AIR SEA DIR/SP/G            HT/PER HT/PER
                          (F)     (DEG/KT/KT) (MB)    (FT/S) (FT/S)
28.5N   80.2W              77 76  130/ 16/ 19 1020.9R   5/ 7
28.9N   78.5W              76 76  130/ 14/ 17 1021.1R   6/ 8   5/ 8
TRIDENT PIER               76 80  110/  9/ 13 1021.0S
28.4N   80.5W                 78                N/A     4/ 5
27.5N   80.2W                 74                N/A     4/ 7

$$
FLZ050-056-061-142-242-148-248-149-249-151-251-155-255-
160-260-010200-
WEST CENTRAL FLORIDA

CITY           SKY/WX    TMP DP  RH WIND       PRES   REMARKS
CRYSTAL RIVER  FAIR      77  72  83 CALM      30.06R
INVERNESS      CLOUDY    81  73  78 CALM      30.07R
BROOKSVILLE    PTCLDY    78  69  73 W3        30.07R
CLEARWATER AIR FAIR      79  70  73 S3        30.04S
ST PETE CLEARW CLEAR     80  69  69 S9        30.04R
TAMPA INTL     MOCLDY    82  70  66 S5        30.05R
TAMPA EXEC     CLOUDY    84  70  61 S5        30.06R
PLANT CITY     PTCLDY    84  70  61 SE13      30.08R
MACDILL AFB    MOCLDY    79  73  83 S5        30.05R
PETER O KNIGHT CLOUDY    82  73  74 SW3       30.06R
ST PETERSBURG  CLOUDY    80  71  74 S5        30.04R
SARASOTA       MOCLDY    80  70  71 S12       30.03R
VENICE         MOCLDY   N/A N/A N/A S8        30.05R

STATION/POSITION SKY/WX   TEMP    WIND        PRES    WAVE   SWELL
                          AIR SEA DIR/SP/G            HT/PER HT/PER
                          (F)     (DEG/KT/KT) (MB)    (FT/S) (FT/S)
27.3N   84.2W                 75                N/A     6/ 7
CLEARWATER BEACH           80 81  170/  8/ 11 1017.5R
MIDDLE TAMPA BAY           79     210/  7/ 10 1017.9R
VENICE                     80 82  190/  8/  9 1016.7R

$$
FLZ066-069-070-075>078-162-262-165-265-010200-
SOUTHWEST FLORIDA AND KEYS

CITY           SKY/WX    TMP DP  RH WIND       PRES   REMARKS
PUNTA GORDA    CLEAR     82  67  60 SE14      30.07R
FT MYERS       CLEAR     82  69  64 SE10      30.05R
SOUTHWEST INTL PTCLDY    81  67  62 E12       30.06R
NAPLES         CLEAR     82  68  62 E14       30.05R
MARCO ISLAND   PTCLDY    81  66  61 E7        30.05R
IMMOKALEE      FAIR      79  70  73 E10       30.06R
MARATHON         N/A     81  73  76 E12G21    30.03R
KEY WEST NAS   PTCLDY    80  71  74 E26       30.02R
KEY WEST INTL  PTCLDY    80  73  79 E23G32    30.02R

STATION/POSITION SKY/WX   TEMP    WIND        PRES    WAVE   SWELL
                          AIR SEA DIR/SP/G            HT/PER HT/PER
                          (F)     (DEG/KT/KT) (MB)    (FT/S) (FT/S)
NAPLES                        81  120/  6/ 10 1017.4R
26.0N   85.6W              80     120/ 14/ 19 1014.5S
DRY TORTUGAS               80     110/ 21/ 24 1015.5R
SAND KEY                   79     120/ 24/ 28 1016.8R
LONG KEY                   80 81  110/ 17/ 19 1017.1R
MOLASSES REEF              79 80   90/ 11/ 13 1017.7R

$$
FLZ067-068-071>074-168-172>174-010200-
SOUTHEAST FLORIDA

CITY           SKY/WX    TMP DP  RH WIND       PRES   REMARKS
W PALM BEACH   MOCLDY    78  70  76 SE17      30.10R
BOCA RATON     MOCLDY    79  72  78 E7        30.09R
FT LAUDER-EXEC MOCLDY    81  69  67 E17       30.08R
FT LAUDERDALE  PTCLDY    79  71  76 E21       30.07R
POMPANO BEACH  CLOUDY    79  71  76 E18G24    30.08S
PEMBROKE PINES MOCLDY    79  71  76 E16G24    30.09R
OPA LOCKA      PTCLDY    78  70  76 E16G23    30.08R
MIAMI          MOCLDY    81  71  71 E18       30.08R
WEST KENDALL   CLOUDY    78  72  81 E17       30.07R
HOMESTEAD      MOCLDY    77  75  94 E13       30.06R

STATION/POSITION SKY/WX   TEMP    WIND        PRES    WAVE   SWELL
                          AIR SEA DIR/SP/G            HT/PER HT/PER
                          (F)     (DEG/KT/KT) (MB)    (FT/S) (FT/S)
PORT EVERGLADES            79      90/ 12/ 17 1018.7R
VIRGINIA KEY               80 82   80/ 16/ 21 1017.6R
LAKE WORTH                 78 80  110/ 16/ 20 1019.9R
FOWEY ROCKS                79 80   80/ 25/ 26 1018.4R
SETTLEMENT POINT           78     110/ 16/ 20 1019.8R

$$





USA.gov is the U.S. government's official web portal to all federal, state and local government web resources and services.